Regional Weather Roundup
Issued by NWS

Home | Current Version | Previous Version | Text Only | Print | Product List | Glossary Off
Versions: 1 2 3 4 5 6 7 8 9 10 11 12 13 14 15 16 17 18 19 20 21 22 23 24 25 26 27 28 29 30 31 32 33 34 35 36 37 38 39 40 41 42 43 44 45 46 47 48 49 50

000
ASUS43 KIND 261159
RWRIN

WEATHER ROUNDUP FOR INDIANA
NATIONAL WEATHER SERVICE INDIANAPOLIS IN
800 AM EDT TUE MAY 26 2015

NOTE: "FAIR" INDICATES FEW OR NO CLOUDS BELOW 12,000 FEET WITH NO
SIGNIFICANT WEATHER AND/OR OBSTRUCTIONS TO VISIBILITY.

* - STATION DOES NOT REPORT WEATHER SUCH AS PRECIPITATION OR FOG.

+ - STATION NOT QUALITY CONTROLLED BY THE NATIONAL WEATHER SERVICE.
    USE DATA WITH CAUTION...ESPECIALLY DEWPOINT AND RELATIVE
    HUMIDITY OBSERVATIONS.

INZ001>003-010>013-019-020-261300-
NORTHWEST INDIANA

CITY           SKY/WX    TMP DP  RH WIND       PRES   REMARKS
GARY /AIRPORT/ CLOUDY    70  66  88 S10       29.97S
RENSSELAER +   MOSUNNY   68  66  94 S10       29.99S

$$

LMZ046-743>745-261300-
SOUTHERN LAKE MICHIGAN

STATION/POSITION TIME  TEMP    WIND        PRES    WAVE
                       AIR SEA DIR/SP/G            HT
                 (UTC) (F)     (DEG/KT/KT) (MB)    (FT)
BURNS HARBOR     1100   67     180/ 12/ 17 1015.6R
MICHIGAN CITY    1100   67     160/ 14/ 19   N/A
5NW MICH CITY    1100   62 52  190/ 10/ 12   N/A     1

$$

INZ004-005-014>016-021>024-261300-
NORTH CENTRAL INDIANA

CITY           SKY/WX    TMP DP  RH WIND       PRES   REMARKS
ELKHART        CLOUDY    66  64  94 S8        30.02F
GOSHEN         CLOUDY    67  63  87 S14       30.03S FOG
6HR MIN TEMP:  64; 6HR MAX TEMP:  68;

SOUTH BEND     CLOUDY    68  63  84 S13       30.02R
6HR MIN TEMP:  66; 6HR MAX TEMP:  69;


$$

INZ006>009-017-018-025>027-261300-
NORTHEAST INDIANA

CITY           SKY/WX    TMP DP  RH WIND       PRES   REMARKS
ANGOLA *+      CLOUDY    64  64 100 S7        30.07R
FORT WAYNE     PTSUNNY   68  65  90 S7        30.06F
6HR MIN TEMP:  62; 6HR MAX TEMP:  68;


$$

INZ028-029-035-036-043>045-051>053-261300-
WEST CENTRAL INDIANA

CITY           SKY/WX    TMP DP  RH WIND       PRES   REMARKS
CRAWFORDSVL +  CLOUDY    66  61  84 S12       30.02S
6HR MIN TEMP:  63; 6HR MAX TEMP:  66;

GREENCASTLE +  CLOUDY    68  61  77 S13       30.03F
LAFAYETTE      CLOUDY    68  65  90 S8        30.00F
6HR MIN TEMP:  64; 6HR MAX TEMP:  68;

TERRE HAUTE    CLOUDY    69  65  86 S12       30.00F
6HR MIN TEMP:  65; 6HR MAX TEMP:  69;


$$

INZ030>032-037>040-046>048-054>057-064-065-261300-
CENTRAL INDIANA

CITY           SKY/WX    TMP DP  RH WIND       PRES   REMARKS
COLUMBUS       MOSUNNY   68  63  83 S10       30.07R
GREENWOOD *+   MOSUNNY   68  63  83 SE10      30.07
INDIANAPOLIS   PTSUNNY   69  64  84 S12       30.03S
6HR MIN TEMP:  64; 6HR MAX TEMP:  69;

-EAGLE CREEK   CLOUDY    69  65  86 S12       30.04S
6HR MIN TEMP:  65; 6HR MAX TEMP:  69;

KOKOMO *+      MOSUNNY   68  64  88 S12       30.04S
6HR MIN TEMP:  64; 6HR MAX TEMP:  68;

MT COMFORT *+  MOSUNNY   68 N/A N/A S9        30.06S
SHELBYVILLE    PTSUNNY   71  64  78 S14       30.06S
6HR MIN TEMP:  68; 6HR MAX TEMP:  72;


$$

INZ033-034-041-042-049-050-058-059-261300-
EAST CENTRAL INDIANA

CITY           SKY/WX    TMP DP  RH WIND       PRES   REMARKS
MUNCIE         PTSUNNY   69  64  84 S13G20    30.07R
6HR MIN TEMP:  66; 6HR MAX TEMP:  69;


$$

INZ060-061-067>069-081>083-085>088-261300-
SOUTHWEST INDIANA

CITY           SKY/WX    TMP DP  RH WIND       PRES   REMARKS
EVANSVILLE     PTSUNNY   69  64  84 S8        30.02R
6HR MIN TEMP:  68; 6HR MAX TEMP:  70;

HUNTINGBURG *+ PTSUNNY   68  63  83 SE9       30.04F
6HR MIN TEMP:  66; 6HR MAX TEMP:  68;


$$

INZ062-063-066-070>080-084-089>092-261300-
SOUTH CENTRAL AND SOUTHEAST INDIANA

CITY           SKY/WX    TMP DP  RH WIND       PRES   REMARKS
BLOOMINGTON    CLOUDY    67  64  90 SE8       30.04S
6HR MIN TEMP:  65; 6HR MAX TEMP:  67;

MADISON *+     PTSUNNY   68  63  83 S8        30.12S
SEYMOUR +      PTSUNNY   70  64  83 S8        30.08R

$$




USA.gov is the U.S. government's official web portal to all federal, state and local government web resources and services.